| time (UTC) | temp F | wind direction | speed knots | gust knots | rain 1hr in | rain 24hr in | rain mn in | humidity % | barometer mb |
| 20260904231542 | 99 | 186 | 0.9 | 4.3 | 0.00 | 0.00 | 0.00 | 47 | 1007.7 |
| 20260904230041 | 99 | 147 | 0.9 | 4.3 | 0.00 | 0.00 | 0.00 | 47 | 1007.8 |
| 20260904224542 | 99 | 134 | 0.9 | 6.1 | 0.00 | 0.00 | 0.00 | 48 | 1007.9 |
| 20260904223037 | 99 | 109 | 0.9 | 5.2 | 0.00 | 0.00 | 0.00 | 46 | 1007.9 |
| 20260904221536 | 99 | 125 | 1.7 | 7.0 | 0.00 | 0.00 | 0.00 | 47 | 1008.0 |
| 20260904220054 | 99 | 115 | 0.9 | 7.8 | 0.00 | 0.00 | 0.00 | 46 | 1008.1 |
| 20260904214537 | 99 | 158 | 1.7 | 6.1 | 0.00 | 0.00 | 0.00 | 48 | 1008.2 |
| 20260904213031 | 98 | 117 | 2.6 | 7.8 | 0.00 | 0.00 | 0.00 | 48 | 1008.3 |
| 20260904211535 | 99 | 147 | 2.6 | 7.0 | 0.00 | 0.00 | 0.00 | 48 | 1008.4 |
| 20260904210039 | 99 | 127 | 0.9 | 7.0 | 0.00 | 0.00 | 0.00 | 48 | 1008.6 |
| 20260904204524 | 99 | 41 | 2.6 | 5.2 | 0.00 | 0.00 | 0.00 | 48 | 1008.7 |
| 20260904203036 | 100 | 227 | 2.6 | 7.8 | 0.00 | 0.00 | 0.00 | 48 | 1009.0 |
| 20260904201516 | 99 | 207 | 0.9 | 6.1 | 0.00 | 0.00 | 0.00 | 50 | 1009.2 |
| 20260904200014 | 99 | 177 | 1.7 | 7.0 | 0.00 | 0.00 | 0.00 | 51 | 1009.4 |
| 20260904194512 | 98 | 227 | 1.7 | 6.1 | 0.00 | 0.00 | 0.00 | 53 | 1009.7 |
| 20260904193009 | 97 | 158 | 1.7 | 7.8 | 0.00 | 0.00 | 0.00 | 53 | 1009.9 |
| 20260904191502 | 96 | 89 | 0.9 | 8.7 | 0.00 | 0.00 | 0.00 | 56 | 1010.0 |
| 20260904190100 | 96 | 66 | 1.7 | 7.0 | 0.00 | 0.00 | 0.00 | 58 | 1010.3 |
| 20260904184559 | 95 | 81 | 0.0 | 7.0 | 0.00 | 0.00 | 0.00 | 59 | 1010.4 |
| 20260904183117 | 95 | 144 | 2.6 | 7.0 | 0.00 | 0.00 | 0.00 | 58 | 1010.6 |
| 20260904181554 | 94 | 97 | 0.0 | 4.3 | 0.00 | 0.00 | 0.00 | 60 | 1010.8 |
| 20260904180113 | 93 | 105 | 1.7 | 6.1 | 0.00 | 0.00 | 0.00 | 61 | 1011.0 |
| 20260904174556 | 92 | 167 | 1.7 | 10.4 | 0.00 | 0.00 | 0.00 | 60 | 1011.2 |
| 20260904173047 | 91 | 184 | 2.6 | 8.7 | 0.00 | 0.00 | 0.00 | 59 | 1011.5 |
| 20260904171552 | 92 | 167 | 2.6 | 6.1 | 0.00 | 0.00 | 0.00 | 61 | 1011.7 |
| 20260904170047 | 90 | 206 | 1.7 | 7.0 | 0.00 | 0.00 | 0.00 | 65 | 1011.8 |
| 20260904164540 | 89 | 243 | 1.7 | 7.8 | 0.00 | 0.00 | 0.00 | 67 | 1011.9 |
| 20260904163036 | 88 | 103 | 1.7 | 7.8 | 0.00 | 0.00 | 0.00 | 69 | 1012.0 |
| 20260904161534 | 88 | 220 | 3.5 | 11.3 | 0.00 | 0.00 | 0.00 | 69 | 1012.0 |
| 20260904160030 | 86 | 247 | 4.3 | 7.8 | 0.00 | 0.00 | 0.00 | 72 | 1011.9 |
| 20260904154528 | 85 | 216 | 2.6 | 7.8 | 0.00 | 0.00 | 0.00 | 75 | 1011.9 |
| 20260904153023 | 84 | 180 | 2.6 | 8.7 | 0.00 | 0.00 | 0.00 | 79 | 1011.8 |
| 20260904151522 | 84 | 236 | 3.5 | 7.0 | 0.00 | 0.00 | 0.00 | 79 | 1011.9 |
| 20260904150030 | 83 | 194 | 0.9 | 7.8 | 0.00 | 0.00 | 0.00 | 83 | 1011.8 |
| 20260904144515 | 82 | 193 | 1.7 | 5.2 | 0.00 | 0.00 | 0.00 | 87 | 1011.8 |
| 20260904143012 | 80 | 123 | 0.0 | 4.3 | 0.00 | 0.00 | 0.00 | 88 | 1011.8 |
| 20260904141512 | 80 | 137 | 0.9 | 4.3 | 0.00 | 0.00 | 0.00 | 89 | 1011.9 |
| 20260904140007 | 79 | 153 | 0.9 | 3.5 | 0.00 | 0.00 | 0.00 | 90 | 1011.8 |
| 20260904134503 | 79 | 114 | 0.0 | 4.3 | 0.00 | 0.00 | 0.00 | 90 | 1011.6 |
| 20260904133006 | 79 | 122 | 0.0 | 2.6 | 0.00 | 0.00 | 0.00 | 90 | 1011.5 |
| 20260904131600 | 79 | 144 | 0.0 | 4.3 | 0.00 | 0.00 | 0.00 | 90 | 1011.4 |
| 20260904130057 | 78 | 131 | 0.0 | 6.1 | 0.00 | 0.00 | 0.00 | 90 | 1011.1 |
| 20260904124604 | 78 | 93 | 0.9 | 4.3 | 0.00 | 0.00 | 0.00 | 90 | 1011.0 |
| 20260904123054 | 78 | 137 | 0.9 | 5.2 | 0.00 | 0.00 | 0.00 | 90 | 1010.9 |
| 20260904121554 | 78 | 100 | 0.0 | 4.3 | 0.00 | 0.00 | 0.00 | 90 | 1010.8 |
| 20260904120059 | 78 | 114 | 0.0 | 3.5 | 0.00 | 0.00 | 0.00 | 90 | 1010.7 |
| 20260904114550 | 78 | 131 | 0.0 | 3.5 | 0.00 | 0.00 | 0.00 | 90 | 1010.6 |
| 20260904113050 | 78 | 105 | 0.9 | 5.2 | 0.00 | 0.00 | 0.00 | 90 | 1010.6 |
| 20260904111549 | 78 | 117 | 0.0 | 3.5 | 0.00 | 0.00 | 0.00 | 90 | 1010.5 |
| 20260904110047 | 78 | 143 | 0.0 | 2.6 | 0.00 | 0.00 | 0.00 | 90 | 1010.6 |
| 20260904104547 | 78 | 118 | 0.0 | 2.6 | 0.00 | 0.00 | 0.00 | 89 | 1010.3 |
| 20260904103048 | 78 | 134 | 0.0 | 3.5 | 0.00 | 0.00 | 0.00 | 89 | 1010.3 |
| 20260904101556 | 78 | 158 | 0.0 | 4.3 | 0.00 | 0.00 | 0.00 | 89 | 1010.3 |
| 20260904100046 | 78 | 154 | 0.0 | 4.3 | 0.00 | 0.00 | 0.00 | 89 | 1010.2 |
| 20260904094550 | 78 | 113 | 0.0 | 1.7 | 0.00 | 0.00 | 0.00 | 89 | 1010.1 |
| 20260904093047 | 78 | 125 | 0.0 | 2.6 | 0.00 | 0.00 | 0.00 | 88 | 1010.2 |
| 20260904091543 | 79 | 123 | 0.9 | 2.6 | 0.00 | 0.00 | 0.00 | 88 | 1010.2 |
| 20260904090045 | 79 | 132 | 0.0 | 2.6 | 0.00 | 0.00 | 0.00 | 87 | 1010.1 |
| 20260904084541 | 79 | 106 | 0.9 | 3.5 | 0.00 | 0.00 | 0.00 | 87 | 1010.2 |
| 20260904083040 | 79 | 133 | 0.0 | 1.7 | 0.00 | 0.00 | 0.00 | 87 | 1010.1 |
| 20260904081539 | 79 | 148 | 0.0 | 0.9 | 0.00 | 0.00 | 0.00 | 87 | 1010.1 |
| 20260904080040 | 79 | 185 | 0.0 | 0.9 | 0.00 | 0.00 | 0.00 | 86 | 1010.0 |
| 20260904074537 | 79 | 152 | 0.0 | 3.5 | 0.00 | 0.00 | 0.00 | 85 | 1010.1 |
| 20260904073040 | 79 | 124 | 0.9 | 3.5 | 0.00 | 0.00 | 0.00 | 85 | 1010.1 |
| 20260904071535 | 79 | 191 | 0.0 | 4.3 | 0.00 | 0.00 | 0.00 | 84 | 1010.2 |
| 20260904070042 | 80 | 180 | 0.0 | 5.2 | 0.00 | 0.00 | 0.00 | 84 | 1010.2 |
| 20260904064540 | 80 | 177 | 0.0 | 3.5 | 0.00 | 0.00 | 0.00 | 83 | 1010.3 |
| 20260904063035 | 80 | 160 | 0.0 | 3.5 | 0.00 | 0.00 | 0.00 | 83 | 1010.4 |
| 20260904061538 | 80 | 243 | 0.9 | 3.5 | 0.00 | 0.00 | 0.00 | 82 | 1010.5 |
| 20260904060051 | 79 | 176 | 0.9 | 2.6 | 0.00 | 0.00 | 0.00 | 81 | 1010.5 |
| 20260904054539 | 80 | 117 | 0.9 | 5.2 | 0.00 | 0.00 | 0.00 | 79 | 1010.5 |
| 20260904053032 | 80 | 189 | 0.0 | 6.1 | 0.00 | 0.00 | 0.00 | 78 | 1010.4 |
| 20260904051525 | 80 | 129 | 1.7 | 4.3 | 0.00 | 0.00 | 0.00 | 77 | 1010.3 |
| 20260904050036 | 80 | 178 | 0.9 | 4.3 | 0.00 | 0.00 | 0.00 | 76 | 1010.2 |
| 20260904044526 | 81 | 109 | 0.0 | 2.6 | 0.00 | 0.00 | 0.00 | 75 | 1010.2 |
| 20260904043020 | 81 | 111 | 0.9 | 4.3 | 0.00 | 0.00 | 0.00 | 74 | 1010.1 |
| 20260904041522 | 82 | 195 | 0.9 | 4.3 | 0.00 | 0.00 | 0.00 | 73 | 1010.1 |
| 20260904040035 | 82 | 128 | 0.9 | 5.2 | 0.00 | 0.00 | 0.00 | 74 | 1010.1 |
| 20260904034521 | 82 | 121 | 0.9 | 7.8 | 0.00 | 0.00 | 0.00 | 74 | 1010.2 |
| 20260904033017 | 82 | 120 | 0.0 | 7.0 | 0.00 | 0.00 | 0.00 | 74 | 1010.2 |
| 20260904031522 | 83 | 117 | 0.9 | 5.2 | 0.00 | 0.00 | 0.00 | 73 | 1010.2 |
| 20260904030016 | 83 | 346 | 0.9 | 7.0 | 0.00 | 0.00 | 0.00 | 73 | 1010.2 |
| 20260904024516 | 83 | 105 | 1.7 | 4.3 | 0.00 | 0.00 | 0.00 | 73 | 1009.9 |
| 20260904023019 | 84 | 134 | 0.0 | 5.2 | 0.00 | 0.00 | 0.00 | 73 | 1009.7 |
| 20260904021527 | 84 | 101 | 1.7 | 6.1 | 0.00 | 0.00 | 0.00 | 74 | 1009.6 |
| 20260904020015 | 84 | 109 | 0.9 | 7.0 | 0.00 | 0.00 | 0.00 | 73 | 1009.1 |
| 20260904014514 | 85 | 164 | 1.7 | 6.1 | 0.00 | 0.00 | 0.00 | 72 | 1008.9 |
| 20260904013013 | 86 | 74 | 1.7 | 5.2 | 0.00 | 0.00 | 0.00 | 69 | 1008.7 |
| 20260904011514 | 87 | 148 | 1.7 | 9.6 | 0.00 | 0.00 | 0.00 | 68 | 1008.4 |
| 20260904010013 | 87 | 99 | 0.9 | 7.8 | 0.00 | 0.00 | 0.00 | 67 | 1008.1 |
| 20260904004516 | 88 | 135 | 2.6 | 7.0 | 0.00 | 0.00 | 0.00 | 67 | 1008.2 |
| 20260904003021 | 88 | 214 | 1.7 | 7.8 | 0.00 | 0.00 | 0.00 | 67 | 1008.1 |
| 20260904001511 | 89 | 134 | 1.7 | 10.4 | 0.00 | 0.00 | 0.00 | 66 | 1008.0 |
| 20260904000011 | 89 | 89 | 2.6 | 8.7 | 0.00 | 0.00 | 0.00 | 66 | 1007.9 |
| 20260903234510 | 90 | 178 | 2.6 | 7.8 | 0.00 | 0.00 | 0.00 | 65 | 1007.8 |
| 20260903233016 | 91 | 160 | 0.9 | 7.0 | 0.00 | 0.00 | 0.00 | 64 | 1007.7 |